EW9081 Weather Reports


time (UTC)temp
C
wind
direction
speed
KPH
gust
KPH
rain 1hr
cm
rain 24hr
cm
rain mn
cm
humidity
%
barometer
mb
20260510050012 14 253 3.2 12.9 0.00 0.00 0.00 78 1016.0
20260510045011 15 250 4.8 14.5 0.00 0.00 0.00 76 1015.7
20260510044511 15 286 8.0 19.3 0.00 0.00 0.00 75 1015.7
20260510044011 15 234 9.7 20.9 0.00 0.00 0.00 74 1015.6
20260510043512 15 265 8.0 20.9 0.00 0.00 0.00 73 1015.6
20260510043010 15 240 6.4 19.3 0.00 0.00 0.00 73 1015.6
20260510042511 16 279 6.4 19.3 0.00 0.00 0.00 72 1015.6
20260510042012 16 209 6.4 17.7 0.00 0.00 0.00 71 1015.6
20260510041514 16 217 4.8 17.7 0.00 0.00 0.00 70 1015.4
20260510041509 16 222 6.4 17.7 0.00 0.00 0.00 70 1015.5
20260510040513 16 257 4.8 17.7 0.00 0.00 0.00 68 1015.2
20260510040508 16 215 4.8 17.7 0.00 0.00 0.00 69 1015.4
20260510035515 16 232 4.8 11.3 0.00 0.00 0.00 68 1015.0
20260510035511 16 223 4.8 17.7 0.00 0.00 0.00 68 1015.2
20260510034509 17 242 3.2 11.3 0.00 0.00 0.00 68 1015.0
20260510034015 17 244 3.2 14.5 0.00 0.00 0.00 67 1014.9
20260510034009 17 213 3.2 14.5 0.00 0.00 0.00 67 1014.9
20260510033007 17 263 3.2 12.9 0.00 0.00 0.00 67 1014.8
20260510032508 17 227 3.2 11.3 0.00 0.00 0.00 67 1014.8
20260510032006 17 248 3.2 11.3 0.00 0.00 0.00 66 1014.8
20260510031506 17 259 3.2 11.3 0.00 0.00 0.00 65 1014.8
20260510031007 17 270 1.6 11.3 0.00 0.00 0.00 65 1014.8
20260510030507 18 242 1.6 4.8 0.00 0.00 0.00 65 1014.8
20260510030006 18 241 1.6 4.8 0.00 0.00 0.00 65 1014.8
20260510025508 18 257 1.6 12.9 0.00 0.00 0.00 64 1014.7
20260510025007 18 198 1.6 12.9 0.00 0.00 0.00 63 1014.7
20260510024511 18 250 1.6 11.3 0.00 0.00 0.00 62 1014.7
20260510024506 18 240 3.2 9.7 0.00 0.00 0.00 63 1014.8
20260510023506 19 254 1.6 11.3 0.00 0.00 0.00 61 1014.7
20260510023007 19 271 3.2 11.3 0.00 0.00 0.00 61 1014.7
20260510022506 19 244 3.2 8.0 0.00 0.00 0.00 61 1014.6
20260510022007 20 252 3.2 9.7 0.00 0.00 0.00 60 1014.5
20260510021512 20 342 3.2 9.7 0.00 0.00 0.00 60 1014.6
20260510021508 20 260 3.2 9.7 0.00 0.00 0.00 60 1014.5
20260510021122 20 255 3.2 14.5 0.00 0.00 0.00 58 1014.6
20260510020006 20 243 1.6 14.5 0.00 0.00 0.00 59 1014.6
20260510015506 20 212 3.2 9.7 0.00 0.00 0.00 58 1014.5
20260510015012 21 242 3.2 11.3 0.00 0.00 0.00 53 1014.6
20260510015006 21 248 3.2 9.7 0.00 0.00 0.00 53 1014.6
20260510014006 21 243 3.2 11.3 0.00 0.00 0.00 53 1014.5
20260510013508 22 263 3.2 11.3 0.00 0.00 0.00 53 1014.6
20260510013007 22 226 3.2 12.9 0.00 0.00 0.00 51 1014.6
20260510012508 23 235 3.2 12.9 0.00 0.00 0.00 51 1014.6
20260510012006 23 242 3.2 12.9 0.00 0.00 0.00 50 1014.6
20260510011507 24 209 1.6 12.9 0.00 0.00 0.00 52 1014.6
20260510011006 25 248 1.6 8.0 0.00 0.00 0.00 52 1014.6
20260510010507 25 309 3.2 11.3 0.00 0.00 0.00 49 1014.6
20260510010006 25 292 3.2 11.3 0.00 0.00 0.00 49 1014.6
20260510005508 25 219 1.6 8.0 0.00 0.00 0.00 47 1014.6
20260510005006 25 319 1.6 3.2 0.00 0.00 0.00 45 1014.6
20260510004506 25 321 1.6 3.2 0.00 0.00 0.00 42 1014.6
20260510004006 25 222 1.6 4.8 0.00 0.00 0.00 42 1014.6
20260510003508 25 42 1.6 4.8 0.00 0.00 0.00 46 1014.5
20260510003006 25 355 1.6 4.8 0.00 0.00 0.00 45 1014.5
20260510002506 25 15 1.6 4.8 0.00 0.00 0.00 44 1014.5
20260510002008 25 5 1.6 4.8 0.00 0.00 0.00 47 1014.6
20260510001512 25 207 1.6 6.4 0.00 0.00 0.00 46 1014.8
20260510001507 25 5 1.6 6.4 0.00 0.00 0.00 43 1014.7
20260510001005 25 44 1.6 6.4 0.00 0.00 0.00 46 1014.8
20260510000005 25 5 1.6 6.4 0.00 0.00 0.00 47 1014.8
20260509235504 25 199 1.6 6.4 0.00 0.00 0.00 44 1014.8
20260509235010 24 11 3.2 6.4 0.00 0.00 0.00 45 1014.9
20260509235004 25 11 3.2 6.4 0.00 0.00 0.00 48 1014.9
20260509234617 25 13 3.2 6.4 0.00 0.00 0.00 48 1015.0
20260509233505 25 36 3.2 4.8 0.00 0.00 0.00 46 1015.0
20260509233004 25 332 3.2 6.4 0.00 0.00 0.00 43 1015.0
20260509232502 25 16 3.2 6.4 0.00 0.00 0.00 41 1015.0
20260509232000 25 11 1.6 4.8 0.00 0.00 0.00 42 1015.2
20260509231457 25 5 1.6 6.4 0.00 0.00 0.00 42 1015.2
20260509230956 25 78 1.6 6.4 0.00 0.00 0.00 44 1015.3
20260509230456 25 198 1.6 6.4 0.00 0.00 0.00 44 1015.4
20260509225958 25 309 1.6 6.4 0.00 0.00 0.00 44 1015.5
20260509225454 25 27 1.6 6.4 0.00 0.00 0.00 38 1015.5
20260509224954 24 332 3.2 4.8 0.00 0.00 0.00 44 1015.5
20260509224454 24 337 3.2 4.8 0.00 0.00 0.00 39 1015.6
20260509223954 24 318 3.2 4.8 0.00 0.00 0.00 43 1015.7
20260509223452 25 32 1.6 6.4 0.00 0.00 0.00 41 1015.7
20260509222952 24 19 1.6 6.4 0.00 0.00 0.00 44 1015.8
20260509222454 24 5 3.2 6.4 0.00 0.00 0.00 43 1015.8
20260509222108 24 290 1.6 6.4 0.00 0.00 0.00 46 1016.1
20260509221958 24 298 1.6 8.0 0.00 0.00 0.00 42 1016.0
20260509221953 24 305 3.2 8.0 0.00 0.00 0.00 45 1015.9
20260509220454 24 322 3.2 6.4 0.00 0.00 0.00 44 1016.2
20260509215953 24 54 1.6 6.4 0.00 0.00 0.00 46 1016.4
20260509215453 24 22 1.6 4.8 0.00 0.00 0.00 49 1016.4
20260509214956 23 332 3.2 11.3 0.00 0.00 0.00 42 1016.7
20260509214952 24 79 1.6 6.4 0.00 0.00 0.00 46 1016.6
20260509213950 23 10 3.2 11.3 0.00 0.00 0.00 43 1016.8
20260509213450 23 9 3.2 6.4 0.00 0.00 0.00 48 1016.9
20260509212951 23 5 1.6 6.4 0.00 0.00 0.00 44 1017.0
20260509212450 23 335 1.6 6.4 0.00 0.00 0.00 50 1017.1
20260509211950 23 268 1.6 3.2 0.00 0.00 0.00 44 1017.1
20260509211450 23 163 1.6 3.2 0.00 0.00 0.00 51 1017.2
20260509210950 22 78 1.6 6.4 0.00 0.00 0.00 47 1017.3
20260509210450 22 71 3.2 6.4 0.00 0.00 0.00 50 1017.4
20260509205950 22 338 3.2 6.4 0.00 0.00 0.00 55 1017.5
20260509205448 22 159 1.6 6.4 0.00 0.00 0.00 50 1017.5
20260509204948 22 239 1.6 6.4 0.00 0.00 0.00 50 1017.5
20260509204448 22 59 1.6 3.2 0.00 0.00 0.00 55 1017.6
20260509203948 22 58 1.6 4.8 0.00 0.00 0.00 48 1017.6
20260509203448 22 30 1.6 4.8 0.00 0.00 0.00 55 1017.7
20260509202952 21 244 1.6 6.4 0.00 0.00 0.00 52 1017.8
20260509202948 22 64 1.6 4.8 0.00 0.00 0.00 54 1017.8
20260509201948 21 142 0.0 6.4 0.00 0.00 0.00 50 1017.9
20260509201449 21 294 1.6 6.4 0.00 0.00 0.00 51 1017.9
20260509200948 21 5 1.6 6.4 0.00 0.00 0.00 53 1018.0
20260509200446 21 24 1.6 4.8 0.00 0.00 0.00 64 1018.2
20260509195946 20 231 1.6 6.4 0.00 0.00 0.00 56 1018.3
20260509195447 20 325 3.2 6.4 0.00 0.00 0.00 56 1018.4
20260509194946 20 347 3.2 6.4 0.00 0.00 0.00 59 1018.4
20260509194446 20 13 3.2 8.0 0.00 0.00 0.00 59 1018.4
20260509193947 20 16 3.2 8.0 0.00 0.00 0.00 58 1018.6
20260509193450 19 337 3.2 8.0 0.00 0.00 0.00 59 1018.6
20260509193445 19 291 3.2 8.0 0.00 0.00 0.00 61 1018.7
20260509192446 19 272 4.8 8.0 0.00 0.00 0.00 61 1018.8
20260509191944 19 326 3.2 8.0 0.00 0.00 0.00 63 1018.8
20260509191441 19 351 1.6 6.4 0.00 0.00 0.00 66 1018.9
20260509190947 18 200 1.6 3.2 0.00 0.00 0.00 66 1019.0
20260509190942 19 344 1.6 6.4 0.00 0.00 0.00 65 1018.9
20260509190442 19 301 1.6 4.8 0.00 0.00 0.00 64 1018.9
20260509185442 18 288 1.6 4.8 0.00 0.00 0.00 68 1019.1
20260509184942 18 290 1.6 8.0 0.00 0.00 0.00 67 1019.2
20260509184442 18 351 3.2 8.0 0.00 0.00 0.00 64 1019.2
20260509183942 18 5 3.2 8.0 0.00 0.00 0.00 67 1019.3
20260509183442 18 298 3.2 8.0 0.00 0.00 0.00 63 1019.2
20260509182939 18 325 1.6 4.8 0.00 0.00 0.00 66 1019.2
20260509182438 18 162 1.6 4.8 0.00 0.00 0.00 67 1019.3
20260509181938 17 304 1.6 8.0 0.00 0.00 0.00 67 1019.4
20260509181438 17 331 1.6 8.0 0.00 0.00 0.00 71 1019.4
20260509180938 17 246 1.6 4.8 0.00 0.00 0.00 71 1019.4
20260509180436 17 167 1.6 4.8 0.00 0.00 0.00 71 1019.4
20260509175933 17 35 1.6 4.8 0.00 0.00 0.00 70 1019.5
20260509175434 17 12 1.6 4.8 0.00 0.00 0.00 70 1019.6
20260509174939 16 194 1.6 4.8 0.00 0.00 0.00 72 1019.7
20260509174934 17 38 1.6 4.8 0.00 0.00 0.00 72 1019.7
20260509174546 16 257 1.6 4.8 0.00 0.00 0.00 71 1019.8
20260509173431 16 305 3.2 6.4 0.00 0.00 0.00 73 1019.8
20260509172932 16 5 3.2 6.4 0.00 0.00 0.00 71 1019.9
20260509172432 16 312 1.6 4.8 0.00 0.00 0.00 74 1020.0
20260509171929 16 349 1.6 4.8 0.00 0.00 0.00 73 1020.0
20260509171430 16 351 1.6 4.8 0.00 0.00 0.00 75 1019.9
20260509170930 16 188 1.6 3.2 0.00 0.00 0.00 76 1020.0
20260509170428 15 112 1.6 4.8 0.00 0.00 0.00 76 1019.9
20260509165926 15 146 1.6 4.8 0.00 0.00 0.00 77 1019.9
20260509165426 15 178 0.0 3.2 0.00 0.00 0.00 77 1020.0
20260509164930 14 175 1.6 4.8 0.00 0.00 0.00 78 1020.2
20260509164925 15 177 1.6 4.8 0.00 0.00 0.00 80 1020.2
20260509163927 14 176 1.6 6.4 0.00 0.00 0.00 79 1020.2
20260509163427 14 169 0.0 6.4 0.00 0.00 0.00 78 1020.2
20260509162925 14 123 0.0 6.4 0.00 0.00 0.00 81 1020.3
20260509162425 14 123 0.0 6.4 0.00 0.00 0.00 80 1020.3
20260509161927 13 159 1.6 4.8 0.00 0.00 0.00 82 1020.4
20260509161427 13 21 1.6 4.8 0.00 0.00 0.00 83 1020.4
20260509160925 13 60 1.6 3.2 0.00 0.00 0.00 83 1020.5
20260509160426 13 53 1.6 3.2 0.00 0.00 0.00 86 1020.4
20260509155927 13 44 0.0 3.2 0.00 0.00 0.00 87 1020.6
20260509155431 12 177 1.6 6.4 0.00 0.00 0.00 88 1020.7
20260509155425 12 177 1.6 4.8 0.00 0.00 0.00 86 1020.7
20260509154926 12 177 1.6 4.8 0.00 0.00 0.00 88 1020.7
20260509153927 12 178 1.6 6.4 0.00 0.00 0.00 89 1020.6
20260509153425 11 173 0.0 4.8 0.00 0.00 0.00 89 1020.8
20260509152931 11 162 0.0 3.2 0.00 0.00 0.00 91 1020.7
20260509152927 11 173 0.0 4.8 0.00 0.00 0.00 90 1020.7
20260509151925 10 162 0.0 3.2 0.00 0.00 0.00 91 1020.8
20260509151427 10 162 0.0 3.2 0.00 0.00 0.00 92 1020.8
20260509150926 10 162 0.0 3.2 0.00 0.00 0.00 92 1020.8
20260509150433 9 162 0.0 1.6 0.00 0.00 0.00 94 1021.1
20260509150426 10 162 0.0 3.2 0.00 0.00 0.00 93 1020.9
20260509145927 10 162 0.0 3.2 0.00 0.00 0.00 93 1021.1
20260509144925 9 162 0.0 1.6 0.00 0.00 0.00 94 1021.1
20260509144426 8 162 0.0 3.2 0.00 0.00 0.00 94 1021.1
20260509143928 8 162 0.0 3.2 0.00 0.00 0.00 95 1021.1
20260509143924 8 162 0.0 3.2 0.00 0.00 0.00 94 1021.1
20260509142925 8 173 0.0 1.6 0.00 0.00 0.00 95 1021.1
20260509142423 8 171 0.0 0.0 0.00 0.00 0.00 95 1021.1
20260509141921 8 170 0.0 0.0 0.00 0.00 0.00 95 1020.9
20260509141422 8 170 0.0 0.0 0.00 0.00 0.00 95 1020.8
20260509140922 7 170 0.0 0.0 0.00 0.00 0.00 95 1020.8
20260509140422 7 170 0.0 0.0 0.00 0.00 0.00 95 1020.6
20260509135923 7 171 0.0 0.0 0.00 0.00 0.00 95 1020.7
20260509135427 7 170 0.0 3.2 0.00 0.00 0.00 95 1020.8
20260509135422 7 170 0.0 0.0 0.00 0.00 0.00 95 1020.7
20260509134421 7 170 0.0 3.2 0.00 0.00 0.00 95 1020.9
20260509133921 7 171 0.0 3.2 0.00 0.00 0.00 94 1020.8
20260509133420 7 171 0.0 3.2 0.00 0.00 0.00 95 1020.7
20260509132923 6 180 0.0 3.2 0.00 0.00 0.00 95 1020.6
20260509132919 6 179 0.0 3.2 0.00 0.00 0.00 95 1020.6
20260509131919 6 180 0.0 3.2 0.00 0.00 0.00 94 1020.6
20260509131420 6 180 0.0 3.2 0.00 0.00 0.00 94 1020.7
20260509130921 6 180 0.0 3.2 0.00 0.00 0.00 94 1020.7
20260509130423 6 180 0.0 0.0 0.00 0.00 0.00 93 1020.8
20260509130419 6 180 0.0 3.2 0.00 0.00 0.00 93 1020.7
20260509125419 6 180 0.0 3.2 0.00 0.00 0.00 93 1020.8
20260509124919 6 180 0.0 3.2 0.00 0.00 0.00 93 1020.8
20260509124417 6 180 0.0 0.0 0.00 0.00 0.00 92 1020.8
20260509123921 6 180 0.0 3.2 0.00 0.00 0.00 92 1020.9
20260509123917 6 180 0.0 0.0 0.00 0.00 0.00 92 1020.8
20260509122921 6 180 0.0 3.2 0.00 0.00 0.00 93 1020.9
20260509122915 6 180 0.0 3.2 0.00 0.00 0.00 93 1020.9
20260509121915 6 180 1.6 3.2 0.00 0.00 0.00 94 1020.9
20260509121415 6 173 0.0 3.2 0.00 0.00 0.00 94 1020.9
20260509120916 6 172 1.6 3.2 0.00 0.00 0.00 94 1021.1
20260509120416 6 171 0.0 3.2 0.00 0.00 0.00 93 1021.1
20260509115915 6 171 0.0 0.0 0.00 0.00 0.00 93 1021.1
20260509115413 6 171 0.0 0.0 0.00 0.00 0.00 94 1021.3
20260509114913 6 171 0.0 1.6 0.00 0.00 0.00 92 1021.2
20260509114413 7 171 0.0 1.6 0.00 0.00 0.00 92 1021.1
20260509113919 7 171 0.0 3.2 0.00 0.00 0.00 93 1021.2
20260509113913 7 171 0.0 3.2 0.00 0.00 0.00 92 1021.2
20260509112912 7 171 0.0 3.2 0.00 0.00 0.00 94 1021.2
20260509112413 7 200 0.0 3.2 0.00 0.00 0.00 94 1021.2
20260509111918 7 188 0.0 3.2 0.00 0.00 0.00 94 1021.3
20260509111914 7 186 0.0 3.2 0.00 0.00 0.00 94 1021.3
20260509111526 7 188 0.0 3.2 0.00 0.00 0.00 94 1021.2
20260509110412 7 188 0.0 3.2 0.00 0.00 0.00 94 1021.3
20260509105911 7 191 0.0 3.2 0.00 0.00 0.00 94 1021.3
20260509105411 6 191 0.0 3.2 0.00 0.00 0.00 92 1021.3
20260509104911 6 191 0.0 3.2 0.00 0.00 0.00 92 1021.4
20260509104411 7 190 0.0 3.2 0.00 0.00 0.00 92 1021.4
20260509103911 7 191 0.0 3.2 0.00 0.00 0.00 92 1021.5
20260509103418 7 191 0.0 0.0 0.00 0.00 0.00 92 1021.7
20260509103410 7 190 0.0 1.6 0.00 0.00 0.00 92 1021.5
20260509102910 7 191 0.0 1.6 0.00 0.00 0.00 93 1021.6
20260509102411 7 191 0.0 1.6 0.00 0.00 0.00 92 1021.6
20260509101414 7 191 0.0 0.0 0.00 0.00 0.00 93 1021.8
20260509101408 7 191 0.0 0.0 0.00 0.00 0.00 92 1021.7
20260509100909 7 191 0.0 0.0 0.00 0.00 0.00 93 1021.7
20260509095908 7 191 0.0 0.0 0.00 0.00 0.00 93 1021.7
20260509095408 7 191 0.0 0.0 0.00 0.00 0.00 93 1021.8
20260509094909 7 191 0.0 0.0 0.00 0.00 0.00 93 1021.7
20260509094409 7 191 0.0 0.0 0.00 0.00 0.00 92 1021.8
20260509093909 7 191 0.0 3.2 0.00 0.00 0.00 91 1021.8
20260509093409 7 191 0.0 3.2 0.00 0.00 0.00 92 1021.8
20260509092909 7 191 0.0 3.2 0.00 0.00 0.00 91 1021.9
20260509092406 7 191 0.0 3.2 0.00 0.00 0.00 91 1021.9
20260509091907 7 191 0.0 1.6 0.00 0.00 0.00 90 1021.8
20260509091406 8 191 0.0 3.2 0.00 0.00 0.00 90 1021.9
20260509090911 8 191 0.0 3.2 0.00 0.00 0.00 91 1022.0
20260509090907 8 191 0.0 3.2 0.00 0.00 0.00 90 1022.0
20260509085907 8 190 0.0 3.2 0.00 0.00 0.00 91 1022.0
20260509085407 8 190 0.0 3.2 0.00 0.00 0.00 90 1022.0
20260509084912 8 193 0.0 3.2 0.00 0.00 0.00 90 1022.0
20260509084907 8 192 0.0 3.2 0.00 0.00 0.00 89 1022.0
20260509083912 8 192 0.0 3.2 0.00 0.00 0.00 90 1022.0
20260509083906 8 192 0.0 1.6 0.00 0.00 0.00 90 1022.0
20260509082907 8 192 0.0 3.2 0.00 0.00 0.00 91 1022.1
20260509082408 9 192 1.6 3.2 0.00 0.00 0.00 90 1022.1
20260509081904 9 192 1.6 3.2 0.00 0.00 0.00 91 1022.1
20260509081406 9 195 0.0 3.2 0.00 0.00 0.00 90 1022.2
20260509080903 9 275 0.0 1.6 0.00 0.00 0.00 90 1022.1
20260509080402 9 296 0.0 0.0 0.00 0.00 0.00 90 1022.2
20260509075908 9 296 0.0 0.0 0.00 0.00 0.00 89 1022.1
20260509075902 9 296 0.0 0.0 0.00 0.00 0.00 88 1022.2
20260509074903 9 296 0.0 0.0 0.00 0.00 0.00 90 1022.2
20260509074403 9 296 0.0 3.2 0.00 0.00 0.00 89 1022.2
20260509073900 9 296 0.0 3.2 0.00 0.00 0.00 89 1022.2
20260509073400 9 295 0.0 0.0 0.00 0.00 0.00 89 1022.2
20260509072902 10 296 0.0 3.2 0.00 0.00 0.00 88 1022.2
20260509072401 10 295 0.0 3.2 0.00 0.00 0.00 88 1022.2
20260509071900 10 298 0.0 3.2 0.00 0.00 0.00 89 1022.3
20260509071401 10 262 0.0 3.2 0.00 0.00 0.00 88 1022.3
20260509070906 10 304 0.0 4.8 0.00 0.00 0.00 88 1022.3
20260509070901 10 304 0.0 4.8 0.00 0.00 0.00 88 1022.3
20260509065900 10 252 0.0 4.8 0.00 0.00 0.00 88 1022.2
20260509065401 10 248 0.0 4.8 0.00 0.00 0.00 87 1022.2
20260509064901 10 296 0.0 4.8 0.00 0.00 0.00 87 1022.2
20260509064400 10 269 1.6 8.0 0.00 0.00 0.00 87 1022.2
20260509063859 10 252 1.6 8.0 0.00 0.00 0.00 87 1022.2
20260509063359 10 218 1.6 8.0 0.00 0.00 0.00 87 1022.2
20260509062859 10 221 0.0 8.0 0.00 0.00 0.00 87 1022.2
20260509062359 10 222 1.6 6.4 0.00 0.00 0.00 87 1022.2
20260509061904 10 260 1.6 4.8 0.00 0.00 0.00 86 1022.2
20260509061859 10 201 1.6 6.4 0.00 0.00 0.00 87 1022.2
20260509060859 10 261 1.6 8.0 0.00 0.00 0.00 86 1022.2
20260509060359 11 252 0.0 8.0 0.00 0.00 0.00 86 1022.2
20260509055859 11 236 3.2 8.0 0.00 0.00 0.00 86 1022.2
20260509055404 11 219 0.0 4.8 0.00 0.00 0.00 85 1022.2
20260509055400 11 208 3.2 8.0 0.00 0.00 0.00 86 1022.3
20260509054857 11 200 1.6 4.8 0.00 0.00 0.00 86 1022.2
20260509053857 11 248 0.0 4.8 0.00 0.00 0.00 85 1022.2
20260509053358 11 242 1.6 4.8 0.00 0.00 0.00 85 1022.2
20260509052857 11 247 1.6 3.2 0.00 0.00 0.00 84 1022.3
20260509052357 11 251 1.6 11.3 0.00 0.00 0.00 84 1022.2
20260509051902 11 251 1.6 6.4 0.00 0.00 0.00 83 1022.2
20260509051858 11 229 1.6 11.3 0.00 0.00 0.00 84 1022.1
20260509051510 11 221 3.2 8.0 0.00 0.00 0.00 83 1022.2
20260509050357 11 263 3.2 8.0 0.00 0.00 0.00 83 1022.1